Regional Weather Roundup
Issued by NWS

Home | Current Version | Previous Version | Graphics & Text | Print | Product List | Glossary On
Versions: 1 2 3 4 5 6 7 8 9 10 11 12 13 14 15 16 17 18 19 20 21 22 23 24 25 26 27 28 29 30 31 32 33 34 35 36 37 38 39 40 41 42 43 44 45 46 47 48 49 50
000
ASUS43 KMKX 250259
RWRWI

WISCONSIN REGIONAL WEATHER ROUNDUP
NATIONAL WEATHER SERVICE MILWAUKEE/SULLIVAN WI
900 PM CST SAT JAN 24 2015

NOTE: "FAIR" INDICATES FEW OR NO CLOUDS BELOW 12,000 FEET WITH NO
SIGNIFICANT WEATHER AND/OR OBSTRUCTIONS TO VISIBILITY.

WIZ001-002-006>008-014>016-023>028-250400-
NORTHWEST WISCONSIN

CITY           SKY/WX    TMP DP  RH WIND       PRES   REMARKS
SUPERIOR ARPT  CLOUDY    27  22  79 E10G17    29.76R WCI  17
ASHLAND        CLOUDY    22  15  75 NE18G26   29.78S WCI   7
HAYWARD        CLOUDY    26  22  84 NE13      29.70R WCI  15
SIREN          CLOUDY    33  28  82 NE8       29.67R WCI  26
CUMBERLAND     CLOUDY    34  30  86 NE5       29.64R WCI  30
RICE LAKE      CLOUDY    33  31  92 CALM      29.66R
CHETEK         CLOUDY    32  31  95 CALM      29.64S
LADYSMITH      CLOUDY    35  31  85 NE10      29.66R WCI  28
EAU CLAIRE     CLOUDY    33  28  81 NE5       29.63S WCI  29
MENOMONIE      CLOUDY    33  31  92 NE3       29.63S
NEW RICHMOND   CLOUDY    35  31  85 E5        29.63R WCI  31
OSCEOLA        CLOUDY    36  31  84 NE6       29.66R WCI  31
$$

WIZ003>005-009-010-017-018-250400-
NORTH CENTRAL WISCONSIN

CITY           SKY/WX    TMP DP  RH WIND       PRES   REMARKS
MANITOWISH WTR CLOUDY    20  16  85 NE7       29.70R WCI  11
ARBOR VITAE    CLOUDY    23  19  82 NE8       29.69R WCI  14
WOODRUFF       CLOUDY    23  19  82 NE8       29.69R WCI  14
RHINELANDER    CLOUDY    24  18  77 E8        29.69R WCI  15
EAGLE RIVER    MOCLDY    19  14  81 NE9       29.68R WCI   9
LAND O LAKES   CLOUDY    20  16  85 N10       29.70R WCI   8
PHILLIPS       CLOUDY    28  23  82 NE10G17   29.66R WCI  18
TOMAHAWK       CLOUDY    29  24  82 NE3       29.67R
MEDFORD        CLOUDY    32  30  90 CALM      29.63R
MERRILL        CLOUDY    33  27  80 NE12      29.65R WCI  24
$$

WIZ029-030-035-036-043>047-250400-
CENTRAL WISCONSIN

CITY           SKY/WX    TMP DP  RH WIND       PRES   REMARKS
WAUSAU         CLOUDY    35  29  78 NE3       29.63R
MOSINEE        NOT AVBL
MARSHFIELD     CLOUDY    33  30  88 CALM      29.64R
STEVENS POINT  CLOUDY    31  30  95 CALM      29.65S
WAUPACA        CLOUDY    35  32  89 CALM      29.66S
WAUTOMA        NOT AVBL
WISC RAPIDS    CLOUDY    32  28  85 CALM      29.66S
CAMP DOUGLAS   CLOUDY    28  28 100 E3        29.65R
$$

WIZ011>013-019>022-031-037>040-048>050-250400-
NORTHEAST WISCONSIN

CITY           SKY/WX    TMP DP  RH WIND       PRES   REMARKS
ANTIGO         CLOUDY    29  26  87 NE14      29.67R WCI  18
SHAWANO        CLOUDY    32  26  77 NE14      29.70R WCI  22
OCONTO         CLOUDY    26  21  82 E9G16     29.72R WCI  17
STURGEON BAY   CLOUDY    25  16  68 NE13      29.74R WCI  13
GREEN BAY      CLOUDY    28  23  81 NE18      29.72R WCI  15
MANITOWOC      NOT AVBL
APPLETON       CLOUDY    30  28  93 NE10      29.69R WCI  21
CLINTONVILLE   CLOUDY    32  27  80 E7G17     29.69R WCI  26
OSHKOSH        CLOUDY    34  30  85 CALM      29.67R
$$

WIZ032>034-041-042-053>061-250400-
SOUTHWEST WISCONSIN

CITY           SKY/WX    TMP DP  RH WIND       PRES   REMARKS
LA CROSSE      CLOUDY    34  30  85 CALM      29.63R
SPARTA         CLOUDY    32  30  92 CALM      29.65S
VIROQUA        CLOUDY    33  32  96 E5        29.61S WCI  29
BOSCOBEL       CLOUDY    34  30  85 NE5       29.63S WCI  30
PRAIRIE DU CHI CLOUDY    34  31  89 CALM      29.62S
PLATTEVILLE    CLOUDY    36  34  91 E6        29.62F WCI  31
$$

WIZ056-057-062-063-064-067-068-250400-
SOUTH CENTRAL WISCONSIN

CITY           SKY/WX    TMP DP  RH WIND       PRES   REMARKS
REEDSBURG      CLOUDY    31  29  94 CALM      29.65S
BARABOO/DELLS  CLOUDY    30  29  94 E3        29.65S FOG
LONE ROCK      NOT AVBL
MINERAL POINT  CLOUDY    36  32  87 SE3       29.62F
MADISON        CLOUDY    31  29  92 CALM      29.66S
MIDDLETON      CLOUDY    33  32  97 CALM      29.66S
WATERTOWN      CLOUDY    32  31  96 CALM      29.67S
MONROE         CLOUDY    32  32 100 CALM      29.63F
JANESVILLE     MOCLDY    32  30  93 VRB6      29.66S WCI  26
$$

WIZ051-052-058>065-066-070>072-250400-
SOUTHEAST WISCONSIN

CITY           SKY/WX    TMP DP  RH WIND       PRES   REMARKS
MILWAUKEE      CLOUDY    35  29  78 SW6       29.68S WCI  30
WAUKESHA       CLOUDY    30  28  93 SW3       29.68R
MILWAUKEE/TIMM CLOUDY    34  30  86 SW5       29.68S WCI  30
RACINE         CLOUDY    34  29  82 W6        29.70R WCI  29
BURLINGTON     CLOUDY    31  29  93 CALM      29.67S
KENOSHA        CLOUDY    33  30  88 N7        29.68R WCI  27
FOND DU LAC    CLOUDY    34  30  85 SW3       29.67R
SHEBOYGAN      CLOUDY    32  30  92 MISG      29.69R
WEST BEND      CLOUDY    34  30  86 W3        29.67R
JUNEAU         CLOUDY    32  31  93 CALM      29.67S
$$

LSZ147-162-250400-
LAKE SUPERIOR

STATION/POSITION TIME  TEMP    WIND        PRES    WAVE
                       AIR SEA DIR/SP/G            HT/PER
                 (UTC) (F)     (DEG/KT/KT) (MB)    (FT/S)
DEVILS ISLAND    0200   22      70/ 25/ 28 1009.8R
PORT WING        0200   25      70/  7/ 16 1008.5R
SAXON HARBOR     0220   24      60/ 15/ 22 1008.5R
$$

LMZ867-665-643>646-250400-
LAKE MICHIGAN

STATION/POSITION TIME  TEMP    WIND        PRES    WAVE
                       AIR SEA DIR/SP/G            HT/PER
                 (UTC) (F)     (DEG/KT/KT) (MB)    (FT/S)
NORTHPORT PIER   0201   24     360/ 20     1007.1R
SISTER BAY       0213   23      10/ 18/ 25   N/A
KEWAUNEE LAKESHO 0200   29      50/ 20/ 25 1004.8R
SHEBOYGAN LAKESH 0200   35      10/  3/  4 1005.0R
PORT WASHINGTON  0240   36        CALM     1005.8R
MILWAUKEE LAKESH 0200   36     270/  5/  7   N/A
KENOSHA   LAKESH 0200   33     320/  7/ 11 1005.4R
$$

TC  - TEMPERATURE IN CELSIUS
VSB - VISIBILITY IN STATUTE MILES
WCI - WIND CHILL INDEX
HX  - HEAT INDEX




USA.gov is the U.S. government's official web portal to all federal, state and local government web resources and services.